Lid_Strength_Index
3 4 2 5 11 12 15 12 10 10 10 8 7 8 8 8 9 12 3 1 0 0 -0 -0 -1 -1 -2 -2 -1 -2 -2 -1 -1 -2 -1 -2 -2 -2 -2 -2 -2 -2 -2 -2 -2 -2 -2 -2 -2
4 1 5 8 13 16 14 11 10 8 8 6 7 8 8 10 6 5 4 1 -0 -0 -0 -0 -0 -1 -2 -2 -1 -2 -2 -2 -2 -2 -2 -2 -2 -2 -2 -2 -2 -2 -2 -2 -2 -2 -2 -2 -2
5 4 7 10 13 16 14 10 9 8 8 8 8 6 8 9 6 4 2 0 -0 0 -0 -0 -0 -1 -2 -2 -1 -2 -2 -2 -2 -2 -2 -2 -2 -2 -2 -2 -2 -2 -2 -2 -2 -2 -2 -2 -2
7 7 10 12 14 12 11 9 8 8 8 7 8 9 6 3 4 2 0 0 0 0 -0 -0 -1 -1 -2 -2 -1 -1 -2 -2 -2 -2 -2 -2 -2 -2 -2 -2 -2 -3 -2 -2 -2 -2 -2 -2 -2
7 9 13 15 14 11 10 9 7 8 8 8 7 11 9 4 1 1 1 0 1 0 -0 -0 -0 -1 -1 -1 -1 -1 -2 -2 -2 -2 -2 -2 -2 -2 -2 -2 -2 -2 -2 -2 -2 -2 -2 -2 -2
8 10 15 15 13 11 10 9 8 8 8 8 8 10 9 2 2 2 1 0 -0 0 -0 -0 1 0 -1 -1 -1 -1 -1 -2 -2 -2 -2 -2 -2 -2 -2 -2 -2 -2 -2 -2 -2 -2 -2 -2 -1
10 11 14 13 12 12 10 9 8 8 7 7 6 11 8 4 2 1 2 1 -0 -0 -0 -0 -0 0 1 0 -0 -1 -1 -1 -1 -2 -2 -2 -2 -2 -2 -3 -2 -2 -2 -2 -2 -1 -1 -1 -1
9 11 13 12 12 12 10 10 8 8 8 5 5 10 9 4 2 1 2 1 0 0 -0 0 -0 -0 0 0 1 1 -0 -0 -1 -1 -1 -1 -1 -1 -1 -1 -2 -2 -2 -1 -1 -1 -1 -1 -1
8 12 14 12 11 11 11 11 10 8 8 6 6 7 5 2 2 2 2 2 1 1 0 -0 -0 -0 0 0 1 2 1 1 0 0 1 1 0 -0 -0 -0 -1 -2 -2 -1 -0 1 0 0 1
9 12 13 10 10 10 11 12 12 8 8 8 8 5 3 3 3 4 4 3 3 2 2 0 0 -0 0 -0 -0 1 0 0 0 0 1 1 1 1 0 1 -0 -1 -1 -1 -0 0 0 2 3
9 12 10 9 9 10 12 12 11 9 10 7 8 6 4 4 4 4 3 3 3 2 1 1 0 0 1 0 0 1 1 1 0 1 2 2 2 2 2 2 1 1 2 2 1 2 3 4 4
10 8 8 8 8 9 11 11 12 11 10 10 7 4 4 5 4 4 4 3 2 3 1 0 1 0 1 1 1 1 1 0 1 0 2 2 3 4 3 2 2 3 3 4 3 4 4 4 4
10 9 8 7 8 9 9 12 12 12 11 7 5 4 5 5 4 3 3 2 3 3 2 1 1 1 0 1 1 2 1 1 1 1 1 2 3 4 4 4 3 3 4 4 5 5 4 4 4
9 9 9 8 8 8 10 11 12 11 7 6 6 6 5 4 4 4 3 4 3 2 2 1 1 0 0 0 0 1 1 1 1 1 1 2 2 3 3 3 3 4 4 4 5 5 4 4 3
9 11 10 9 8 10 9 12 12 11 9 7 8 6 5 5 4 4 4 4 3 3 2 1 1 1 1 1 0 1 1 0 1 1 1 2 2 3 3 3 3 3 4 4 4 4 4 4 3
11 12 14 10 9 9 10 13 10 10 11 11 7 7 6 5 4 4 4 4 4 3 2 2 1 1 1 1 1 1 1 1 1 1 1 1 2 2 3 3 3 3 3 4 4 4 3 3 2
12 16 15 13 9 10 11 13 10 10 11 11 11 11 8 5 4 4 4 4 4 4 3 2 1 1 1 1 1 0 0 0 0 0 0 0 1 2 3 3 3 3 3 3 3 2 2 2 2
16 15 14 14 12 11 12 13 11 11 11 11 12 12 12 10 6 4 3 3 3 3 3 2 1 1 1 1 1 0 0 0 -0 0 0 0 0 1 1 2 1 1 1 1 1 1 1 1 1
13 14 14 13 12 13 13 13 12 11 13 11 11 12 11 11 10 10 10 4 3 3 3 2 2 2 1 3 3 2 2 1 1 1 0 1 1 1 1 1 1 1 1 1 1 1 1 1 1
13 14 15 13 12 13 14 14 13 12 12 13 12 12 11 12 13 10 9 8 5 3 3 2 2 2 2 1 1 2 2 1 0 0 1 0 1 1 1 1 1 1 1 1 2 2 2 2 2
14 15 15 15 14 13 16 18 15 13 13 13 13 13 12 13 13 11 11 11 10 11 10 8 4 2 2 2 2 2 2 1 1 1 1 1 1 1 1 1 1 1 1 2 1 1 2 3 2
16 13 14 15 16 19 17 21 17 15 14 14 13 13 13 12 12 13 13 12 12 12 12 11 7 2 2 2 2 2 2 3 2 1 0 1 1 1 1 1 1 1 1 1 1 1 1 2 3
13 11 13 14 17 18 19 21 19 17 17 15 15 13 14 14 14 14 14 13 14 14 14 13 10 9 7 5 2 2 2 1 2 2 2 1 1 0 1 0 1 1 1 1 1 1 1 1 1
11 12 13 15 17 21 19 21 21 19 17 16 14 14 14 15 15 14 14 13 14 14 14 13 12 12 9 7 7 5 2 3 3 2 2 2 2 1 1 1 1 1 1 1 1 1 1 1 1
12 14 19 21 24 23 20 21 19 16 15 15 14 15 15 15 15 16 16 16 15 15 15 13 13 14 12 10 10 9 8 6 4 3 3 3 3 5 7 6 6 5 4 3 2 2 2 2 2
13 14 18 26 25 22 18 21 19 15 14 15 15 15 16 16 16 17 17 17 17 16 16 15 15 14 15 13 12 12 11 9 9 9 8 9 9 10 9 8 8 8 7 7 7 8 8 9 9
12 14 13 18 23 20 19 18 15 13 14 15 16 16 17 17 17 18 18 18 18 18 17 16 16 15 15 14 12 13 12 12 11 10 9 10 9 8 9 9 9 9 8 8 8 10 9 10 10
11 11 15 17 23 24 20 19 19 15 14 15 16 16 17 17 18 18 19 19 19 19 18 18 17 17 16 15 14 13 13 13 13 12 12 12 12 11 11 12 12 12 12 11 11 12 12 12 13
13 14 14 15 17 21 23 19 13 14 12 12 14 15 16 17 18 19 19 19 19 19 19 19 18 18 17 16 15 15 15 14 14 14 14 14 14 13 13 13 13 14 14 13 13 14 14 14 15
11 13 13 17 20 18 17 18 11 12 12 11 13 13 14 15 17 18 18 19 19 19 19 19 18 18 17 16 16 16 15 15 15 16 16 15 15 15 15 15 15 15 15 15 15 16 16 16 17